N755ZR KSFO-KSAN

Flight info

Callsign N755ZR
Flight time 1h 42m
Altitude 29000
Route GAPP7 SFO LAX COMIX2
Aircraft TBM8/L-SDFGRWY/S

Departure

Time 2026-04-25 20:56
Airport San Francisco International Airport (KSFO)

Arrival

Time 2026-04-25 22:38
Airport San Diego International Airport (KSAN)
Time Latitude Longitude Altitude Speed Heading
2026-04-25 20:43 37.62930 -122.38218 17 ft 0 kts 300°
2026-04-25 20:49 37.62930 -122.38219 17 ft 1 kts 295°
2026-04-25 20:49 37.62907 -122.38221 17 ft 10 kts 162°
2026-04-25 20:50 37.62863 -122.38206 17 ft 6 kts 163°
2026-04-25 20:50 37.62792 -122.38198 17 ft 16 kts 208°
2026-04-25 20:50 37.62690 -122.38267 17 ft 11 kts 205°
2026-04-25 20:50 37.62622 -122.38311 17 ft 13 kts 199°
2026-04-25 20:51 37.62553 -122.38206 17 ft 21 kts 118°
2026-04-25 20:51 37.62475 -122.38021 17 ft 27 kts 117°
2026-04-25 20:51 37.62380 -122.37794 17 ft 27 kts 116°
2026-04-25 20:51 37.62316 -122.37644 17 ft 13 kts 117°
2026-04-25 20:52 37.62274 -122.37539 17 ft 18 kts 117°
2026-04-25 20:52 37.62228 -122.37431 17 ft 24 kts 118°
2026-04-25 20:52 37.62096 -122.37120 17 ft 35 kts 120°
2026-04-25 20:52 37.62006 -122.37001 17 ft 6 kts 206°
2026-04-25 20:53 37.62004 -122.37002 17 ft 0 kts 206°
2026-04-25 20:54 37.61980 -122.37017 17 ft 10 kts 205°
2026-04-25 20:54 37.61912 -122.37092 17 ft 14 kts 185°
2026-04-25 20:54 37.61792 -122.37142 17 ft 21 kts 208°
2026-04-25 20:54 37.61755 -122.37228 17 ft 0 kts 299°
2026-04-25 20:55 37.61838 -122.37428 17 ft 54 kts 298°
2026-04-25 20:55 37.62099 -122.38033 55 ft 98 kts 298°
2026-04-25 20:55 37.62463 -122.38813 341 ft 106 kts 301°
2026-04-25 20:56 37.62860 -122.39604 755 ft 107 kts 301°
2026-04-25 20:56 37.63261 -122.40361 1274 ft 102 kts 300°
2026-04-25 20:56 37.63664 -122.41160 1678 ft 107 kts 300°
2026-04-25 20:56 37.64063 -122.41940 2145 ft 106 kts 300°
2026-04-25 20:57 37.64468 -122.42731 2560 ft 108 kts 301°
2026-04-25 20:57 37.64973 -122.43425 2966 ft 113 kts 344°
2026-04-25 20:57 37.65637 -122.43018 3363 ft 118 kts 68°
2026-04-25 20:57 37.65880 -122.42022 3779 ft 119 kts 75°
2026-04-25 20:58 37.66102 -122.41013 4211 ft 120 kts 76°
2026-04-25 20:58 37.66312 -122.39997 4636 ft 120 kts 78°
2026-04-25 20:58 37.66515 -122.38973 5051 ft 120 kts 78°
2026-04-25 20:58 37.66716 -122.37949 5476 ft 120 kts 79°
2026-04-25 20:59 37.66919 -122.36923 5887 ft 121 kts 79°
2026-04-25 20:59 37.67131 -122.35899 6289 ft 121 kts 79°
2026-04-25 20:59 37.67349 -122.34871 6682 ft 122 kts 79°
2026-04-25 20:59 37.67572 -122.33823 6991 ft 131 kts 79°
2026-04-25 21:00 37.67816 -122.32630 7185 ft 150 kts 80°
2026-04-25 21:00 37.67898 -122.32213 7285 ft 151 kts 80°
2026-04-25 21:00 37.68548 -122.28782 8411 ft 149 kts 96°
2026-04-25 21:01 37.68137 -122.27655 8813 ft 142 kts 139°
2026-04-25 21:01 37.67346 -122.26909 9224 ft 143 kts 148°
2026-04-25 21:01 37.66529 -122.26184 9620 ft 144 kts 145°
2026-04-25 21:01 37.65727 -122.25414 10016 ft 146 kts 143°
2026-04-25 21:02 37.64933 -122.24605 10401 ft 148 kts 142°
2026-04-25 21:02 37.64141 -122.23768 10802 ft 149 kts 141°
2026-04-25 21:02 37.63351 -122.22915 11196 ft 150 kts 140°
2026-04-25 21:02 37.62556 -122.22053 11585 ft 152 kts 140°
2026-04-25 21:03 37.61752 -122.21177 11968 ft 153 kts 140°
2026-04-25 21:03 37.60942 -122.20292 12357 ft 155 kts 139°
2026-04-25 21:03 37.60124 -122.19402 12743 ft 156 kts 139°
2026-04-25 21:03 37.59301 -122.18503 13128 ft 157 kts 139°
2026-04-25 21:04 37.58484 -122.17612 13501 ft 158 kts 139°
2026-04-25 21:04 37.57642 -122.16691 13879 ft 159 kts 136°
2026-04-25 21:04 37.56840 -122.15731 14232 ft 160 kts 133°
2026-04-25 21:04 37.56029 -122.14768 14583 ft 161 kts 135°
2026-04-25 21:05 37.55171 -122.13854 14939 ft 162 kts 140°
2026-04-25 21:05 37.54278 -122.12970 15286 ft 164 kts 140°
2026-04-25 21:05 37.53399 -122.12054 15647 ft 164 kts 139°
2026-04-25 21:05 37.52528 -122.11112 15998 ft 165 kts 138°
2026-04-25 21:06 37.51657 -122.10160 16341 ft 166 kts 137°
2026-04-25 21:06 37.50781 -122.09200 16682 ft 168 kts 137°
2026-04-25 21:06 37.49898 -122.08234 17020 ft 169 kts 137°
2026-04-25 21:06 37.49309 -122.07593 17233 ft 169 kts 137°
2026-04-25 21:07 37.48112 -122.06289 17687 ft 171 kts 137°
2026-04-25 21:07 37.47212 -122.05310 18015 ft 171 kts 137°
2026-04-25 21:07 37.46308 -122.04325 18331 ft 173 kts 137°
2026-04-25 21:07 37.45395 -122.03333 18646 ft 174 kts 138°
2026-04-25 21:08 37.44488 -122.02349 18954 ft 175 kts 139°
2026-04-25 21:08 37.43548 -122.01328 19261 ft 177 kts 139°
2026-04-25 21:08 37.42615 -122.00314 19563 ft 178 kts 139°
2026-04-25 21:08 37.41678 -121.99299 19876 ft 178 kts 140°
2026-04-25 21:09 37.39787 -121.97249 20427 ft 182 kts 142°
2026-04-25 21:09 37.38822 -121.96203 20702 ft 184 kts 142°
2026-04-25 21:09 37.37851 -121.95152 20985 ft 185 kts 143°
2026-04-25 21:10 37.36874 -121.94093 21264 ft 186 kts 143°
2026-04-25 21:10 37.35892 -121.93030 21535 ft 187 kts 143°
2026-04-25 21:10 37.34904 -121.91960 21806 ft 188 kts 144°
2026-04-25 21:10 37.33910 -121.90884 22078 ft 189 kts 144°
2026-04-25 21:11 37.32910 -121.89804 22346 ft 190 kts 145°
2026-04-25 21:11 37.31904 -121.88715 22597 ft 191 kts 145°
2026-04-25 21:11 37.30893 -121.87622 22857 ft 192 kts 146°
2026-04-25 21:11 37.29891 -121.86540 23108 ft 193 kts 146°
2026-04-25 21:12 37.28857 -121.85423 23367 ft 194 kts 146°
2026-04-25 21:12 37.27834 -121.84317 23613 ft 195 kts 146°
2026-04-25 21:12 37.26805 -121.83205 23846 ft 196 kts 147°
2026-04-25 21:12 37.26121 -121.82466 24006 ft 196 kts 147°
2026-04-25 21:13 37.24731 -121.80968 24331 ft 197 kts 147°
2026-04-25 21:13 37.23689 -121.79846 24579 ft 197 kts 148°
2026-04-25 21:13 37.22662 -121.78738 24816 ft 197 kts 148°
2026-04-25 21:13 37.21617 -121.77613 25123 ft 194 kts 146°
2026-04-25 21:14 37.20602 -121.76515 25378 ft 192 kts 147°
2026-04-25 21:14 37.19603 -121.75436 25613 ft 192 kts 147°
2026-04-25 21:14 37.18579 -121.74333 25842 ft 192 kts 147°
2026-04-25 21:14 37.17578 -121.73258 26051 ft 192 kts 147°
2026-04-25 21:15 37.16548 -121.72152 26272 ft 192 kts 148°
2026-04-25 21:15 37.15531 -121.71059 26482 ft 193 kts 147°
2026-04-25 21:15 37.14510 -121.69961 26696 ft 193 kts 148°
2026-04-25 21:15 37.13488 -121.68863 26912 ft 194 kts 148°
2026-04-25 21:16 37.12463 -121.67763 27123 ft 194 kts 148°
2026-04-25 21:16 37.11449 -121.66674 27325 ft 195 kts 148°
2026-04-25 21:16 37.10407 -121.65552 27521 ft 195 kts 148°
2026-04-25 21:16 37.09388 -121.64460 27710 ft 196 kts 148°
2026-04-25 21:17 37.08340 -121.63338 27908 ft 196 kts 149°
2026-04-25 21:17 37.07304 -121.62229 28092 ft 196 kts 149°
2026-04-25 21:17 37.06263 -121.61114 28284 ft 197 kts 149°
2026-04-25 21:17 37.05221 -121.59997 28465 ft 198 kts 149°
2026-04-25 21:18 37.04176 -121.58879 28660 ft 198 kts 149°
2026-04-25 21:18 37.03130 -121.57758 28839 ft 198 kts 150°
2026-04-25 21:18 37.02075 -121.56631 28950 ft 203 kts 150°
2026-04-25 21:18 37.00987 -121.55484 28970 ft 211 kts 150°
2026-04-25 21:19 36.99840 -121.54277 28981 ft 220 kts 149°
2026-04-25 21:19 36.98646 -121.53019 28987 ft 229 kts 149°
2026-04-25 21:19 36.97408 -121.51712 28991 ft 237 kts 149°
2026-04-25 21:19 36.96126 -121.50358 28992 ft 245 kts 149°
2026-04-25 21:20 36.94807 -121.48961 28991 ft 252 kts 149°
2026-04-25 21:20 36.94352 -121.48479 28991 ft 254 kts 148°
2026-04-25 21:20 36.92514 -121.46533 28988 ft 263 kts 148°
2026-04-25 21:20 36.90642 -121.44550 28985 ft 270 kts 148°
2026-04-25 21:21 36.89668 -121.43520 28984 ft 274 kts 148°
2026-04-25 21:21 36.87726 -121.41465 28982 ft 279 kts 148°
2026-04-25 21:21 36.86719 -121.40399 28982 ft 282 kts 148°
2026-04-25 21:21 36.85215 -121.38807 28980 ft 285 kts 148°
2026-04-25 21:22 36.83695 -121.37197 28981 ft 288 kts 148°
2026-04-25 21:22 36.82160 -121.35572 28981 ft 291 kts 148°
2026-04-25 21:22 36.80612 -121.33930 28980 ft 293 kts 148°
2026-04-25 21:22 36.79056 -121.32280 28979 ft 295 kts 148°
2026-04-25 21:23 36.77493 -121.30619 28984 ft 296 kts 148°
2026-04-25 21:23 36.75920 -121.28952 28988 ft 298 kts 148°
2026-04-25 21:23 36.74338 -121.27278 28988 ft 299 kts 148°
2026-04-25 21:23 36.72750 -121.25598 28987 ft 300 kts 148°
2026-04-25 21:24 36.69550 -121.22219 28986 ft 302 kts 148°
2026-04-25 21:24 36.66342 -121.18815 28987 ft 304 kts 146°
2026-04-25 21:25 36.63190 -121.15306 28980 ft 303 kts 147°
2026-04-25 21:25 36.59972 -121.11916 28966 ft 303 kts 148°
2026-04-25 21:26 36.56750 -121.08538 28986 ft 303 kts 148°
2026-04-25 21:26 36.53528 -121.05146 28987 ft 304 kts 146°
2026-04-25 21:27 36.50366 -121.01648 28987 ft 304 kts 146°
2026-04-25 21:27 36.47172 -120.98237 28973 ft 302 kts 147°
2026-04-25 21:28 36.43969 -120.94882 28970 ft 301 kts 147°
2026-04-25 21:28 36.42369 -120.93213 28971 ft 300 kts 147°
2026-04-25 21:28 36.40770 -120.91543 28976 ft 300 kts 147°
2026-04-25 21:29 36.39171 -120.89874 28980 ft 300 kts 147°
2026-04-25 21:29 36.37573 -120.88204 28978 ft 300 kts 147°
2026-04-25 21:29 36.35977 -120.86534 28984 ft 300 kts 147°
2026-04-25 21:29 36.34380 -120.84865 28973 ft 300 kts 148°
2026-04-25 21:30 36.32784 -120.83200 28977 ft 300 kts 148°
2026-04-25 21:30 36.31190 -120.81538 28968 ft 299 kts 148°
2026-04-25 21:30 36.29598 -120.79878 28972 ft 299 kts 148°
2026-04-25 21:30 36.28542 -120.78777 28977 ft 299 kts 148°
2026-04-25 21:31 36.26413 -120.76560 28981 ft 299 kts 148°
2026-04-25 21:31 36.24817 -120.74899 28980 ft 300 kts 148°
2026-04-25 21:31 36.23218 -120.73235 28978 ft 300 kts 148°
2026-04-25 21:31 36.21622 -120.71573 28981 ft 300 kts 148°
2026-04-25 21:32 36.20047 -120.69937 28977 ft 299 kts 148°
2026-04-25 21:32 36.18452 -120.68279 28979 ft 299 kts 148°
2026-04-25 21:32 36.16838 -120.66603 28982 ft 299 kts 148°
2026-04-25 21:32 36.15242 -120.64946 28973 ft 299 kts 148°
2026-04-25 21:33 36.13648 -120.63293 28964 ft 299 kts 148°
2026-04-25 21:33 36.12054 -120.61639 28964 ft 298 kts 148°
2026-04-25 21:33 36.10488 -120.60015 28973 ft 298 kts 148°
2026-04-25 21:33 36.08894 -120.58366 28967 ft 298 kts 148°
2026-04-25 21:34 36.07306 -120.56722 28962 ft 298 kts 148°
2026-04-25 21:34 36.05722 -120.55083 28974 ft 297 kts 148°
2026-04-25 21:34 36.04135 -120.53442 28966 ft 297 kts 148°
2026-04-25 21:34 36.02551 -120.51804 28967 ft 297 kts 148°
2026-04-25 21:35 36.00964 -120.50164 28978 ft 297 kts 148°
2026-04-25 21:35 35.99382 -120.48532 28986 ft 297 kts 148°
2026-04-25 21:35 35.97792 -120.46892 28992 ft 297 kts 149°
2026-04-25 21:35 35.96202 -120.45254 28991 ft 298 kts 149°
2026-04-25 21:36 35.94611 -120.43615 28996 ft 298 kts 149°
2026-04-25 21:36 35.93019 -120.41975 28992 ft 298 kts 149°
2026-04-25 21:36 35.91404 -120.40313 28988 ft 299 kts 149°
2026-04-25 21:36 35.89832 -120.38695 28987 ft 299 kts 149°
2026-04-25 21:37 35.88234 -120.37052 28985 ft 299 kts 149°
2026-04-25 21:37 35.87156 -120.35944 28983 ft 299 kts 149°
2026-04-25 21:37 35.85040 -120.33769 28980 ft 299 kts 149°
2026-04-25 21:37 35.83444 -120.32130 28979 ft 299 kts 149°
2026-04-25 21:38 35.81845 -120.30488 28979 ft 299 kts 149°
2026-04-25 21:38 35.80249 -120.28852 28974 ft 298 kts 149°
2026-04-25 21:38 35.78654 -120.27218 28981 ft 298 kts 149°
2026-04-25 21:38 35.77064 -120.25588 28975 ft 298 kts 149°
2026-04-25 21:39 35.75468 -120.23953 28975 ft 298 kts 149°
2026-04-25 21:39 35.73875 -120.22323 28979 ft 298 kts 149°
2026-04-25 21:39 35.72283 -120.20695 28979 ft 298 kts 149°
2026-04-25 21:39 35.70690 -120.19067 28989 ft 298 kts 149°
2026-04-25 21:40 35.69096 -120.17440 28993 ft 298 kts 149°
2026-04-25 21:40 35.67501 -120.15814 28996 ft 298 kts 149°
2026-04-25 21:40 35.65907 -120.14187 28984 ft 298 kts 149°
2026-04-25 21:40 35.64315 -120.12561 28974 ft 297 kts 149°
2026-04-25 21:41 35.62724 -120.10940 28973 ft 297 kts 149°
2026-04-25 21:41 35.61136 -120.09320 28970 ft 297 kts 149°
2026-04-25 21:41 35.59548 -120.07702 28980 ft 296 kts 149°
2026-04-25 21:41 35.57964 -120.06089 28951 ft 295 kts 149°
2026-04-25 21:42 35.56385 -120.04482 28958 ft 295 kts 149°
2026-04-25 21:42 35.54805 -120.02875 28968 ft 295 kts 149°
2026-04-25 21:42 35.53221 -120.01265 28973 ft 295 kts 149°
2026-04-25 21:42 35.51639 -119.99658 28972 ft 296 kts 149°
2026-04-25 21:43 35.50053 -119.98049 28970 ft 296 kts 150°
2026-04-25 21:43 35.48464 -119.96439 28964 ft 296 kts 150°
2026-04-25 21:43 35.46875 -119.94827 28953 ft 296 kts 150°
2026-04-25 21:43 35.45286 -119.93215 28961 ft 296 kts 150°
2026-04-25 21:44 35.43698 -119.91605 28946 ft 296 kts 150°
2026-04-25 21:44 35.42109 -119.89997 28950 ft 296 kts 150°
2026-04-25 21:44 35.38929 -119.86783 28959 ft 296 kts 150°
2026-04-25 21:45 35.37344 -119.85180 28951 ft 296 kts 150°
2026-04-25 21:45 35.36275 -119.84098 28947 ft 295 kts 150°
2026-04-25 21:45 35.34176 -119.81977 28961 ft 295 kts 150°
2026-04-25 21:45 35.32592 -119.80381 28966 ft 296 kts 150°
2026-04-25 21:46 35.31000 -119.78777 28971 ft 296 kts 150°
2026-04-25 21:46 35.29408 -119.77174 28965 ft 297 kts 150°
2026-04-25 21:46 35.27814 -119.75568 28968 ft 297 kts 150°
2026-04-25 21:46 35.26219 -119.73962 28972 ft 298 kts 150°
2026-04-25 21:47 35.24617 -119.72349 28975 ft 298 kts 150°
2026-04-25 21:47 35.23014 -119.70736 28968 ft 299 kts 150°
2026-04-25 21:47 35.21409 -119.69119 28956 ft 299 kts 150°
2026-04-25 21:47 35.19799 -119.67505 28949 ft 299 kts 150°
2026-04-25 21:48 35.18189 -119.65889 28948 ft 300 kts 150°
2026-04-25 21:48 35.16579 -119.64272 28952 ft 300 kts 150°
2026-04-25 21:48 35.14965 -119.62656 28949 ft 300 kts 150°
2026-04-25 21:48 35.13352 -119.61038 28951 ft 300 kts 150°
2026-04-25 21:49 35.11735 -119.59416 28949 ft 300 kts 150°
2026-04-25 21:49 35.08504 -119.56179 28954 ft 301 kts 150°
2026-04-25 21:50 35.05263 -119.52937 28946 ft 301 kts 150°
2026-04-25 21:50 35.02025 -119.49700 28944 ft 301 kts 151°
2026-04-25 21:51 34.98791 -119.46472 28945 ft 300 kts 151°
2026-04-25 21:51 34.97174 -119.44857 28947 ft 300 kts 151°
2026-04-25 21:51 34.95558 -119.43246 28952 ft 300 kts 151°
2026-04-25 21:51 34.93941 -119.41636 28951 ft 300 kts 151°
2026-04-25 21:52 34.92320 -119.40023 28944 ft 300 kts 151°
2026-04-25 21:52 34.90703 -119.38413 28941 ft 300 kts 151°
2026-04-25 21:52 34.89089 -119.36806 28944 ft 300 kts 151°
2026-04-25 21:52 34.87474 -119.35201 28946 ft 300 kts 151°
2026-04-25 21:53 34.85860 -119.33595 28955 ft 300 kts 151°
2026-04-25 21:53 34.84241 -119.31987 28962 ft 300 kts 151°
2026-04-25 21:53 34.82621 -119.30379 28957 ft 301 kts 151°
2026-04-25 21:54 34.79374 -119.27161 28973 ft 301 kts 151°
2026-04-25 21:54 34.76124 -119.23942 28958 ft 301 kts 152°
2026-04-25 21:55 34.72873 -119.20720 28969 ft 302 kts 152°
2026-04-25 21:55 34.69610 -119.17492 28974 ft 302 kts 152°
2026-04-25 21:56 34.66343 -119.14265 28970 ft 303 kts 152°
2026-04-25 21:56 34.63073 -119.11038 28967 ft 303 kts 152°
2026-04-25 21:57 34.59806 -119.07818 28949 ft 302 kts 152°
2026-04-25 21:57 34.56545 -119.04598 28952 ft 302 kts 152°
2026-04-25 21:58 34.53288 -119.01396 28928 ft 300 kts 152°
2026-04-25 21:58 34.50040 -118.98204 28941 ft 301 kts 152°
2026-04-25 21:59 34.46784 -118.95010 28944 ft 301 kts 152°
2026-04-25 21:59 34.45159 -118.93415 28881 ft 300 kts 152°
2026-04-25 21:59 34.43545 -118.91831 28883 ft 298 kts 152°
2026-04-25 22:00 34.40326 -118.88675 28948 ft 298 kts 152°
2026-04-25 22:00 34.38709 -118.87094 28957 ft 299 kts 152°
2026-04-25 22:00 34.37087 -118.85511 28962 ft 300 kts 152°
2026-04-25 22:00 34.35459 -118.83922 28949 ft 301 kts 152°
2026-04-25 22:01 34.32195 -118.80732 28964 ft 302 kts 152°
2026-04-25 22:01 34.30005 -118.78594 28968 ft 303 kts 152°
2026-04-25 22:02 34.26189 -118.74871 28955 ft 304 kts 152°
2026-04-25 22:02 34.22887 -118.71655 28949 ft 305 kts 152°
2026-04-25 22:03 34.19580 -118.68436 28953 ft 305 kts 152°
2026-04-25 22:03 34.16270 -118.65215 28960 ft 306 kts 152°
2026-04-25 22:04 34.12944 -118.61987 28949 ft 306 kts 152°
2026-04-25 22:04 34.09626 -118.58767 28953 ft 307 kts 152°
2026-04-25 22:05 34.06301 -118.55546 28955 ft 307 kts 152°
2026-04-25 22:05 34.02966 -118.52318 28970 ft 308 kts 152°
2026-04-25 22:06 33.99626 -118.49088 28968 ft 308 kts 152°
2026-04-25 22:06 33.96278 -118.45854 28968 ft 309 kts 152°
2026-04-25 22:07 33.93505 -118.43061 28983 ft 313 kts 148°
2026-04-25 22:07 33.89917 -118.38659 28969 ft 319 kts 143°
2026-04-25 22:08 33.86894 -118.34745 28975 ft 319 kts 143°
2026-04-25 22:08 33.83874 -118.30831 28973 ft 319 kts 143°
2026-04-25 22:09 33.80846 -118.26919 28982 ft 319 kts 143°
2026-04-25 22:09 33.77799 -118.22985 28980 ft 319 kts 143°
2026-04-25 22:10 33.74803 -118.19065 28979 ft 321 kts 142°
2026-04-25 22:10 33.71814 -118.15124 28965 ft 321 kts 142°
2026-04-25 22:11 33.68785 -118.11143 28958 ft 321 kts 142°
2026-04-25 22:11 33.65766 -118.07183 28803 ft 326 kts 142°
2026-04-25 22:12 33.64194 -118.05144 28381 ft 339 kts 142°
2026-04-25 22:12 33.62591 -118.03060 27959 ft 341 kts 142°
2026-04-25 22:12 33.60981 -118.00953 27509 ft 342 kts 142°
2026-04-25 22:12 33.59896 -117.99531 27205 ft 343 kts 141°
2026-04-25 22:13 33.57757 -117.96734 26606 ft 344 kts 141°
2026-04-25 22:13 33.56134 -117.94615 26127 ft 345 kts 141°
2026-04-25 22:13 33.54507 -117.92497 25651 ft 345 kts 141°
2026-04-25 22:13 33.52791 -117.90450 25165 ft 342 kts 144°
2026-04-25 22:14 33.51061 -117.88494 24689 ft 343 kts 144°
2026-04-25 22:14 33.49325 -117.86526 24211 ft 343 kts 144°
2026-04-25 22:14 33.47600 -117.84555 23739 ft 344 kts 143°
2026-04-25 22:14 33.45874 -117.82572 23259 ft 344 kts 143°
2026-04-25 22:15 33.44144 -117.80580 22790 ft 345 kts 143°
2026-04-25 22:15 33.42390 -117.78617 22315 ft 344 kts 146°
2026-04-25 22:15 33.40591 -117.76723 21839 ft 344 kts 146°
2026-04-25 22:16 33.36990 -117.72932 20895 ft 346 kts 146°
2026-04-25 22:16 33.35186 -117.71015 20444 ft 346 kts 146°
2026-04-25 22:16 33.33386 -117.69098 19996 ft 347 kts 146°
2026-04-25 22:16 33.31585 -117.67179 19548 ft 348 kts 146°
2026-04-25 22:17 33.29784 -117.65258 19097 ft 348 kts 146°
2026-04-25 22:17 33.27976 -117.63333 18645 ft 348 kts 146°
2026-04-25 22:17 33.26170 -117.61405 18186 ft 348 kts 146°
2026-04-25 22:17 33.24367 -117.59481 17711 ft 347 kts 146°
2026-04-25 22:18 33.22575 -117.57593 17235 ft 340 kts 146°
2026-04-25 22:18 33.20810 -117.55748 16761 ft 335 kts 146°
2026-04-25 22:18 33.19074 -117.53921 16291 ft 331 kts 146°
2026-04-25 22:18 33.17362 -117.52116 15865 ft 327 kts 146°
2026-04-25 22:19 33.15710 -117.50372 15450 ft 324 kts 146°
2026-04-25 22:19 33.13968 -117.48604 15061 ft 317 kts 149°
2026-04-25 22:19 33.12253 -117.47050 15022 ft 302 kts 152°
2026-04-25 22:19 33.10569 -117.45622 15006 ft 292 kts 152°
2026-04-25 22:20 33.08930 -117.44234 15000 ft 286 kts 153°
2026-04-25 22:20 33.07315 -117.42879 14849 ft 286 kts 153°
2026-04-25 22:20 33.05654 -117.41521 14475 ft 292 kts 153°
2026-04-25 22:20 33.03961 -117.40146 14034 ft 298 kts 153°
2026-04-25 22:21 33.02220 -117.38723 13303 ft 309 kts 153°
2026-04-25 22:21 33.00435 -117.37248 12560 ft 314 kts 152°
2026-04-25 22:21 32.98677 -117.35783 11812 ft 302 kts 152°
2026-04-25 22:21 32.96981 -117.34365 11061 ft 294 kts 151°
2026-04-25 22:22 32.95332 -117.32969 10304 ft 288 kts 150°
2026-04-25 22:22 32.93717 -117.31600 9552 ft 283 kts 149°
2026-04-25 22:22 32.92130 -117.30259 9021 ft 273 kts 148°
2026-04-25 22:22 32.90662 -117.28985 9007 ft 251 kts 146°
2026-04-25 22:23 32.89286 -117.27775 9002 ft 246 kts 146°
2026-04-25 22:23 32.87872 -117.26561 9015 ft 254 kts 147°
2026-04-25 22:23 32.86426 -117.25387 9010 ft 250 kts 148°
2026-04-25 22:23 32.84975 -117.24212 8649 ft 261 kts 148°
2026-04-25 22:24 32.83450 -117.23003 7965 ft 264 kts 149°
2026-04-25 22:24 32.82021 -117.21635 7281 ft 265 kts 135°
2026-04-25 22:24 32.81029 -117.19836 7042 ft 252 kts 116°
2026-04-25 22:24 32.80463 -117.17934 7031 ft 238 kts 107°
2026-04-25 22:25 32.80071 -117.16044 7021 ft 233 kts 104°
2026-04-25 22:25 32.79688 -117.14188 7016 ft 230 kts 105°
2026-04-25 22:25 32.79294 -117.12358 7014 ft 228 kts 105°
2026-04-25 22:25 32.78884 -117.10506 6686 ft 235 kts 107°
2026-04-25 22:26 32.78448 -117.08629 6323 ft 236 kts 107°
2026-04-25 22:26 32.77976 -117.06777 6068 ft 230 kts 110°
2026-04-25 22:26 32.77416 -117.05052 6039 ft 219 kts 114°
2026-04-25 22:26 32.76799 -117.03408 6023 ft 217 kts 116°
2026-04-25 22:27 32.76173 -117.01780 6021 ft 216 kts 116°
2026-04-25 22:27 32.75544 -117.00161 6017 ft 216 kts 116°
2026-04-25 22:27 32.74955 -116.98521 6021 ft 217 kts 108°
2026-04-25 22:27 32.74713 -116.96751 6029 ft 218 kts 94°
2026-04-25 22:28 32.74655 -116.94951 6024 ft 218 kts 93°
2026-04-25 22:28 32.74580 -116.93151 6015 ft 218 kts 94°
2026-04-25 22:28 32.74503 -116.91353 6015 ft 218 kts 93°
2026-04-25 22:28 32.74394 -116.89561 5974 ft 218 kts 103°
2026-04-25 22:29 32.73602 -116.88129 5716 ft 207 kts 149°
2026-04-25 22:29 32.72265 -116.87795 5482 ft 196 kts 186°
2026-04-25 22:29 32.70917 -116.87945 5252 ft 193 kts 190°
2026-04-25 22:30 32.68324 -116.88359 5057 ft 182 kts 194°
2026-04-25 22:30 32.67316 -116.89139 5033 ft 175 kts 237°
2026-04-25 22:30 32.67087 -116.90513 5035 ft 173 kts 276°
2026-04-25 22:30 32.67241 -116.91446 4932 ft 178 kts 281°
2026-04-25 22:31 32.67605 -116.93425 4418 ft 185 kts 279°
2026-04-25 22:31 32.67829 -116.94932 4026 ft 185 kts 278°
2026-04-25 22:31 32.68004 -116.96421 3846 ft 176 kts 276°
2026-04-25 22:31 32.68200 -116.97806 3832 ft 166 kts 284°
2026-04-25 22:32 32.68546 -116.99123 3829 ft 170 kts 285°
2026-04-25 22:32 32.68874 -117.00443 3599 ft 158 kts 286°
2026-04-25 22:32 32.69173 -117.01597 3357 ft 137 kts 285°
2026-04-25 22:32 32.69424 -117.02634 3151 ft 126 kts 284°
2026-04-25 22:33 32.69652 -117.03608 2951 ft 120 kts 284°
2026-04-25 22:33 32.69872 -117.04548 2763 ft 117 kts 284°
2026-04-25 22:33 32.70082 -117.05466 2588 ft 114 kts 284°
2026-04-25 22:33 32.70292 -117.06364 2407 ft 112 kts 284°
2026-04-25 22:34 32.70510 -117.07249 2226 ft 111 kts 284°
2026-04-25 22:34 32.70725 -117.08129 2050 ft 111 kts 284°
2026-04-25 22:34 32.70936 -117.09003 1875 ft 110 kts 284°
2026-04-25 22:34 32.71147 -117.09871 1699 ft 109 kts 284°
2026-04-25 22:35 32.71340 -117.10667 1544 ft 89 kts 283°
2026-04-25 22:35 32.71491 -117.11309 1412 ft 78 kts 281°
2026-04-25 22:35 32.71625 -117.11972 1284 ft 86 kts 280°
2026-04-25 22:35 32.71825 -117.12662 1142 ft 90 kts 291°
2026-04-25 22:36 32.72062 -117.13349 1004 ft 90 kts 285°
2026-04-25 22:36 32.72218 -117.14064 871 ft 88 kts 281°
2026-04-25 22:36 32.72368 -117.14775 749 ft 89 kts 281°
2026-04-25 22:36 32.72532 -117.15482 653 ft 87 kts 282°
2026-04-25 22:37 32.72689 -117.16132 500 ft 80 kts 277°
2026-04-25 22:37 32.72840 -117.16818 354 ft 90 kts 281°
2026-04-25 22:37 32.73008 -117.17507 177 ft 84 kts 280°
2026-04-25 22:37 32.73157 -117.18141 24 ft 72 kts 282°
2026-04-25 22:38 32.73263 -117.18578 17 ft 27 kts 284°
2026-04-25 22:38 32.73325 -117.18782 14 ft 24 kts 303°
2026-04-25 22:38 32.73407 -117.18802 13 ft 4 kts 25°
2026-04-25 22:39 32.73417 -117.18789 13 ft 7 kts 69°
2026-04-25 22:39 32.73404 -117.18690 13 ft 17 kts 106°
2026-04-25 22:39 32.73364 -117.18524 17 ft 20 kts 105°
2026-04-25 22:39 32.73328 -117.18377 16 ft 23 kts 106°
2026-04-25 22:40 32.73272 -117.18145 15 ft 28 kts 105°
2026-04-25 22:40 32.73252 -117.17997 15 ft 11 kts 53°
2026-04-25 22:40 32.73286 -117.17969 16 ft 10 kts 16°
2026-04-25 22:40 32.73387 -117.17918 15 ft 19 kts 41°
2026-04-25 22:41 32.73386 -117.17867 15 ft 3 kts 188°
2026-04-25 22:41 32.73383 -117.17868 15 ft 0 kts 217°